PBO Station Position Time Series. Reference Frame : NAM14
Format Version,1.1.1
4-character ID,AC17
Station name,DriftRiverAK2006
Begin Date, 2006-09-02
End Date, 2023-06-26
Release Date, 2023-06-27
Reference position, 60.6639021545 North Latitude, -152.4038461278 East Longitude, 882.62620 meters elevation,
Date, North (mm), East (mm), Vertical (mm), North Std. Deviation (mm), East Std. Deviation (mm),              Vertical Std. Deviation (mm), Quality,
2006-09-02,0.00, 0.00, 0.00, 2.48, 1.64, 7.92, repro,
2006-09-03,0.29, -0.15, 2.01, 2.48, 1.66, 8.00, repro,
2006-09-04,-1.24, -0.84, 1.87, 2.55, 1.67, 8.23, repro,
2006-09-05,-1.54, -0.99, -7.18, 2.61, 1.67, 8.22, repro,
2006-09-06,-1.69, -1.20, 0.46, 2.47, 1.62, 7.88, repro,
2006-09-07,-0.77, 0.72, -0.96, 2.54, 1.68, 8.12, repro,
2006-09-08,-1.27, 1.02, 3.21, 2.56, 1.70, 8.23, repro,
2006-09-09,-1.90, 0.36, 9.59, 2.44, 1.61, 7.86, repro,
2006-09-10,-1.38, 0.07, 6.72, 2.42, 1.60, 7.77, repro,
2006-09-11,-0.55, 0.94, -0.20, 2.40, 1.60, 7.74, repro,
2006-09-12,-0.79, -0.25, -7.36, 2.38, 1.60, 7.71, repro,
2006-09-13,0.99, 0.28, -7.93, 2.41, 1.60, 7.75, repro,
2006-09-14,-2.61, 1.33, -2.96, 2.54, 1.71, 8.16, repro,
2006-09-15,-3.64, 0.41, 5.92, 2.42, 1.64, 7.86, repro,
2006-09-16,-2.23, 1.02, 5.73, 2.35, 1.58, 7.64, repro,
2006-09-17,-0.26, 0.32, 0.17, 2.35, 1.57, 7.62, repro,
2006-09-18,0.32, 0.52, -1.58, 2.35, 1.58, 7.66, repro,
2006-09-19,-0.99, 0.65, 0.50, 2.35, 1.59, 7.70, repro,
2006-09-20,-0.76, 0.68, 1.50, 2.36, 1.58, 7.65, repro,
2006-09-21,-1.38, 1.22, -3.25, 2.45, 1.62, 7.88, repro,
2006-09-22,-2.21, 1.63, 5.07, 2.48, 1.64, 7.89, repro,
2006-09-23,-1.10, 0.65, -1.37, 2.40, 1.61, 7.75, repro,
2006-09-24,0.15, 0.48, -6.62, 2.43, 1.64, 7.86, repro,
2006-09-25,0.62, -0.07, -3.50, 2.37, 1.59, 7.71, repro,
2006-09-26,-1.92, 1.00, -2.18, 2.35, 1.57, 7.60, repro,
2006-09-27,-0.08, 1.04, 0.46, 2.36, 1.58, 7.64, repro,
2006-09-28,-0.47, 1.99, -1.78, 2.36, 1.58, 7.63, repro,
2006-09-29,-0.11, 0.90, -3.09, 2.35, 1.58, 7.63, repro,
2006-09-30,-0.10, 0.93, 2.45, 2.41, 1.62, 7.79, repro,
2006-10-01,0.20, 0.89, -3.60, 2.38, 1.57, 7.64, repro,
2006-10-02,0.50, -0.38, 0.08, 2.43, 1.60, 7.79, repro,
2006-10-03,-0.25, -0.01, -0.43, 2.46, 1.61, 7.86, repro,
2006-10-04,0.12, 3.09, -2.61, 2.39, 1.60, 7.74, repro,
2006-10-05,0.17, 1.10, -0.45, 2.35, 1.58, 7.63, repro,
2006-10-06,0.31, 1.68, -1.80, 2.37, 1.58, 7.64, repro,
2006-10-07,0.52, 1.72, -4.98, 2.44, 1.61, 7.78, repro,
2006-10-08,-1.48, 1.23, -7.38, 2.44, 1.61, 7.77, repro,
2006-10-09,-3.21, 2.13, 1.01, 2.39, 1.59, 7.66, repro,
2006-10-10,-1.06, 3.01, 1.05, 2.42, 1.63, 7.82, repro,
2006-10-11,1.28, 3.72, -12.67, 2.42, 1.60, 7.71, repro,
2006-10-12,0.34, 1.20, -7.94, 2.38, 1.58, 7.64, repro,
2006-10-13,-1.38, -0.18, -14.06, 2.35, 1.54, 7.54, repro,
2006-10-14,-0.25, -0.28, -6.84, 2.42, 1.59, 7.77, repro,
2006-10-15,0.92, -0.64, -0.94, 2.42, 1.59, 7.74, repro,
2006-10-16,0.64, 0.58, -2.76, 2.33, 1.55, 7.52, repro,
2006-10-17,3.03, 0.71, -1.92, 6.61, 3.97, 22.50, repro,
2006-10-18,0.07, -1.66, -0.51, 2.34, 1.55, 7.57, repro,
2006-10-19,0.06, -0.72, -4.07, 2.50, 1.68, 7.98, repro,
2006-10-20,0.04, 3.13, -2.89, 2.78, 1.82, 8.53, repro,
2006-10-21,-0.67, 0.65, -6.93, 2.65, 1.79, 8.16, repro,
2006-10-22,-1.58, 1.30, 0.12, 2.49, 1.67, 8.00, repro,
2006-10-23,-1.28, 0.35, 3.44, 2.40, 1.58, 7.75, repro,
2006-10-24,-1.56, 0.76, 1.61, 2.51, 1.68, 8.07, repro,
2006-10-25,-1.56, 0.60, 11.41, 2.72, 1.83, 8.59, repro,
2006-10-26,-0.43, -0.63, 6.99, 2.50, 1.69, 7.97, repro,
2006-10-27,-0.91, -0.33, -4.29, 2.33, 1.56, 7.59, repro,
2006-10-28,0.16, -0.02, -8.53, 2.50, 1.68, 8.05, repro,
2006-10-29,0.03, 1.01, -8.67, 2.41, 1.60, 7.79, repro,
2006-10-30,-0.22, 1.23, -7.46, 2.32, 1.54, 7.54, repro,
2006-10-31,1.69, -0.53, -7.08, 2.44, 1.64, 7.87, repro,
2006-11-01,0.57, -0.45, -7.29, 2.48, 1.68, 8.03, repro,
2006-11-02,0.29, -0.11, -2.08, 2.49, 1.68, 8.08, repro,
2006-11-03,2.07, -0.95, -3.60, 2.39, 1.59, 7.78, repro,
2006-11-04,1.53, -0.26, -7.18, 2.36, 1.58, 7.86, repro,
2006-11-05,0.59, -0.66, -2.16, 2.36, 1.59, 7.74, repro,
2006-11-06,0.17, -0.06, -2.46, 2.38, 1.59, 7.78, repro,
2006-11-07,0.03, -0.48, -1.26, 2.38, 1.58, 7.97, repro,
2006-11-08,1.12, -0.16, 3.09, 2.50, 1.64, 8.26, repro,
2006-11-09,-0.02, -0.47, 1.75, 2.43, 1.59, 7.99, repro,
2006-11-10,-0.73, -0.25, 2.12, 2.39, 1.59, 8.01, repro,
2006-11-11,0.49, -1.05, 1.14, 2.43, 1.61, 8.00, repro,
2006-11-12,0.36, 0.41, 2.52, 2.54, 1.68, 8.38, repro,
2006-11-13,0.62, 0.68, 0.69, 2.44, 1.60, 8.08, repro,
2006-11-14,-0.23, 0.33, 2.23, 2.34, 1.54, 7.60, repro,
2006-11-15,-1.48, 0.17, 4.82, 2.32, 1.53, 7.54, repro,
2006-11-16,1.29, 0.34, 1.24, 2.32, 1.53, 7.54, repro,
2006-11-17,-0.45, 0.21, 0.79, 2.37, 1.57, 7.70, repro,
2006-11-18,-0.41, -0.46, -1.63, 2.31, 1.54, 7.58, repro,
2006-11-19,-0.16, 0.31, -1.29, 2.33, 1.54, 7.54, repro,
2006-11-20,-0.54, -0.68, -1.36, 2.32, 1.53, 7.52, repro,
2006-11-21,0.68, -1.07, -5.58, 2.32, 1.54, 7.56, repro,
2006-11-22,-0.98, -0.75, -7.04, 2.32, 1.54, 7.61, repro,
2006-11-23,0.74, -1.35, -9.95, 2.38, 1.58, 7.74, repro,
2006-11-24,-0.14, -0.84, -10.76, 2.44, 1.64, 7.89, repro,
2006-11-25,-1.14, -0.37, -10.01, 2.36, 1.57, 7.66, repro,
2006-11-26,-0.90, -0.26, -11.60, 2.36, 1.57, 7.65, repro,
2006-11-27,0.33, 0.13, -11.83, 2.35, 1.57, 7.68, repro,
2006-11-28,-1.66, -0.12, -7.34, 2.32, 1.54, 7.61, repro,
2006-11-29,-0.75, -0.02, -4.09, 2.32, 1.54, 7.58, repro,
2006-11-30,-0.78, 0.23, -2.91, 2.38, 1.58, 7.72, repro,
2006-12-01,-0.53, -0.25, -10.83, 2.33, 1.53, 7.57, repro,
2006-12-02,-1.61, 0.39, -13.91, 2.35, 1.56, 7.66, repro,
2006-12-03,-1.74, -0.47, -7.82, 2.37, 1.57, 7.74, repro,
2006-12-04,-2.49, -0.70, -6.89, 2.37, 1.58, 7.75, repro,
2006-12-05,-0.54, -1.09, -5.76, 2.36, 1.58, 7.74, repro,
2006-12-06,-4.12, -1.39, -0.31, 2.39, 1.58, 7.76, repro,
2006-12-07,-3.30, -1.30, 7.58, 2.37, 1.58, 7.73, repro,
2006-12-08,-0.70, -2.13, 12.26, 2.37, 1.57, 7.74, repro,
2006-12-09,-2.50, -3.95, 13.88, 2.38, 1.57, 7.74, repro,
2006-12-10,-2.83, -3.18, 14.83, 2.40, 1.60, 7.81, repro,
2006-12-11,0.01, -2.66, 4.85, 2.32, 1.55, 7.52, repro,
2006-12-12,-0.08, -2.59, 13.72, 2.44, 1.63, 7.91, repro,
2006-12-13,0.68, -2.30, 10.87, 2.43, 1.62, 7.92, repro,
2006-12-14,1.63, -3.43, 5.10, 2.36, 1.55, 7.45, repro,
2006-12-15,0.59, -0.94, -2.90, 2.69, 1.81, 9.02, repro,
2006-12-16,-0.36, -0.74, -2.32, 2.38, 1.59, 7.68, repro,
2006-12-17,-0.06, -1.03, 4.76, 2.45, 1.65, 8.07, repro,
2006-12-18,-0.54, -1.93, 8.95, 2.55, 1.79, 8.84, repro,
2006-12-19,-2.32, -1.70, 13.58, 2.51, 1.68, 8.44, repro,
2006-12-20,-2.11, -0.32, 11.40, 2.42, 1.62, 7.84, repro,
2006-12-21,-2.25, -0.30, 0.77, 2.35, 1.57, 7.64, repro,
2006-12-22,-2.47, 1.31, -0.52, 2.53, 1.70, 8.44, repro,
2006-12-23,-2.82, 0.18, -2.53, 2.49, 1.75, 8.33, repro,
2006-12-24,0.79, 0.18, -8.98, 2.36, 1.55, 7.50, repro,
2006-12-25,0.30, -0.33, -4.99, 2.43, 1.61, 7.85, repro,
2006-12-26,-0.64, 0.98, -7.34, 2.54, 1.74, 8.30, repro,
2006-12-27,-2.12, 1.15, -7.63, 2.47, 1.63, 7.68, repro,
2006-12-28,-3.97, -0.06, -7.43, 2.61, 1.74, 8.54, repro,
2006-12-29,-2.19, 0.83, -0.42, 2.59, 1.74, 8.22, repro,
2006-12-30,-2.50, -0.82, -4.74, 2.61, 1.77, 8.55, repro,
2006-12-31,-0.54, -0.43, -4.79, 2.66, 1.79, 8.58, repro,
2007-01-01,-1.55, 0.27, 5.15, 2.65, 1.83, 8.76, repro,
2007-01-02,-0.58, -1.24, 6.64, 2.56, 1.72, 8.37, repro,
2007-01-03,-1.01, -2.02, 7.24, 2.61, 1.70, 8.20, repro,
2007-01-04,-1.10, -0.16, 0.09, 2.51, 1.68, 7.73, repro,
2007-01-05,-2.00, 0.30, -1.22, 2.56, 1.72, 8.44, repro,
2007-01-06,0.83, -0.65, -4.60, 2.52, 1.67, 8.06, repro,
2007-01-07,-1.12, -0.97, -9.15, 2.38, 1.57, 7.56, repro,
2007-01-08,-0.36, 0.23, -10.05, 2.47, 1.62, 8.03, repro,
2007-01-09,0.92, -1.21, -16.40, 2.38, 1.58, 7.80, repro,
2007-01-10,0.52, -0.38, -20.55, 2.38, 1.56, 7.60, repro,
2007-01-11,-0.94, 0.09, -20.88, 2.40, 1.59, 7.82, repro,
2007-01-12,-1.08, -0.36, -14.90, 2.29, 1.55, 7.48, repro,
2007-01-13,0.91, -0.51, -13.05, 2.30, 1.52, 7.34, repro,
2007-01-14,-2.40, -1.39, -11.99, 2.29, 1.51, 7.30, repro,
2007-01-15,-2.55, -1.25, -9.87, 2.33, 1.60, 7.41, repro,
2007-01-16,-1.34, -0.46, -8.76, 2.35, 1.56, 7.46, repro,
2007-01-17,-2.67, -0.19, -7.77, 2.34, 1.58, 7.42, repro,
2007-01-18,-2.79, -0.98, -8.69, 2.41, 1.61, 7.60, repro,
2007-01-19,-2.84, -1.33, -3.54, 2.33, 1.57, 7.35, repro,
2007-01-20,-1.83, -1.11, -5.10, 2.35, 1.58, 7.39, repro,
2007-01-21,-0.58, -1.32, -7.07, 2.28, 1.52, 7.23, repro,
2007-01-22,0.31, -1.16, -12.13, 2.31, 1.53, 7.32, repro,
2007-01-23,-0.04, -0.90, -13.83, 2.30, 1.54, 7.43, repro,
2007-01-24,-0.17, -0.70, -14.69, 2.34, 1.58, 7.38, repro,
2007-01-25,-1.70, -0.29, -13.86, 2.35, 1.57, 7.48, repro,
2007-01-26,4.44, -9.62, -7.73, 2.31, 1.53, 7.32, repro,
2007-01-27,11.80, -17.76, -5.62, 2.30, 1.54, 7.31, repro,
2007-01-28,7.22, -18.12, -6.69, 2.29, 1.55, 7.35, repro,
2007-01-29,7.23, -17.91, -11.38, 2.31, 1.54, 7.37, repro,
2007-01-30,6.42, -16.29, -13.64, 2.32, 1.54, 7.39, repro,
2007-01-31,0.59, -6.69, -24.44, 2.30, 1.52, 7.29, repro,
2007-02-01,1.28, -0.52, -19.33, 2.34, 1.57, 7.34, repro,
2007-02-02,-0.55, -0.61, -16.03, 2.33, 1.57, 7.67, repro,
2007-02-03,0.46, -0.44, -14.69, 2.33, 1.57, 7.63, repro,
2007-02-04,-0.48, -1.58, -17.30, 2.32, 1.55, 7.49, repro,
2007-02-05,-0.06, -0.44, -17.24, 2.57, 1.75, 8.48, repro,
2007-02-06,0.69, -1.97, -24.33, 2.37, 1.61, 8.07, repro,
2007-02-07,-1.20, -2.00, -19.16, 2.32, 1.56, 7.48, repro,
2007-02-08,0.52, -1.21, -16.63, 2.36, 1.60, 7.58, repro,
2007-02-09,0.61, -2.13, -18.14, 2.38, 1.60, 7.63, repro,
2007-02-10,-0.57, -1.66, -15.06, 2.44, 1.63, 8.25, repro,
2007-02-11,-0.21, -2.12, -15.32, 2.55, 1.68, 8.14, repro,
2007-02-12,-1.02, -2.33, -11.01, 2.33, 1.57, 7.76, repro,
2007-02-13,-0.59, -1.57, -9.09, 2.33, 1.60, 7.81, repro,
2007-02-14,-0.48, -2.80, -9.26, 2.33, 1.58, 7.77, repro,
2007-02-15,0.58, -2.53, -8.40, 2.35, 1.58, 7.66, repro,
2007-02-16,1.29, -1.30, -11.64, 2.34, 1.58, 7.62, repro,
2007-02-17,0.12, -1.09, -14.07, 2.41, 1.58, 7.50, repro,
2007-02-18,1.03, -1.55, -7.13, 2.36, 1.63, 7.55, repro,
2007-02-19,0.78, -1.14, -3.25, 2.30, 1.55, 7.35, repro,
2007-02-20,0.90, -1.17, -7.59, 2.32, 1.55, 7.47, repro,
2007-02-21,0.61, -2.42, -11.71, 2.31, 1.53, 7.29, repro,
2007-02-22,0.36, -1.55, -14.67, 2.29, 1.53, 7.28, repro,
2007-02-23,0.43, -1.63, -13.08, 2.38, 1.66, 7.58, repro,
2007-02-24,0.66, -1.46, -10.28, 2.32, 1.55, 7.40, repro,
2007-02-25,0.77, -0.72, -16.18, 2.30, 1.54, 7.38, repro,
2007-02-26,5.53, -2.97, -16.73, 2.30, 1.53, 7.29, repro,
2007-02-27,2.60, -2.05, -13.31, 2.30, 1.54, 7.33, repro,
2007-02-28,2.27, -2.61, -19.07, 2.30, 1.54, 7.31, repro,
2007-03-01,3.01, -2.13, -17.14, 2.42, 1.61, 7.64, repro,
2007-03-02,3.35, -1.41, -21.21, 2.43, 1.63, 7.64, repro,
2007-03-03,1.17, -2.76, -21.01, 2.37, 1.58, 7.55, repro,
2007-03-04,2.22, -2.73, -19.46, 2.41, 1.59, 7.57, repro,
2007-03-05,2.56, -2.78, -19.42, 2.34, 1.57, 7.40, repro,
2007-03-06,1.00, -1.41, -10.58, 2.34, 1.58, 7.43, repro,
2007-03-07,0.86, -1.79, -9.37, 2.37, 1.57, 7.48, repro,
2007-03-08,0.64, -1.14, -7.89, 2.36, 1.58, 7.48, repro,
2007-03-09,-0.71, -1.25, -6.88, 2.34, 1.56, 7.39, repro,
2007-03-10,1.61, -1.45, -6.53, 2.49, 1.62, 7.60, repro,
2007-03-11,0.83, -2.00, -14.51, 2.40, 1.61, 7.55, repro,
2007-03-12,-0.46, -1.30, -11.63, 2.34, 1.58, 7.44, repro,
2007-03-13,-1.67, -1.76, -14.88, 2.35, 1.61, 7.51, repro,
2007-03-14,0.73, -1.93, -18.04, 2.30, 1.54, 7.33, repro,
2007-03-15,1.35, -3.27, -23.85, 2.35, 1.56, 7.46, repro,
2007-03-16,2.10, -3.08, -22.10, 2.34, 1.58, 7.50, repro,
2007-03-17,1.43, -1.23, -14.11, 2.29, 1.55, 7.36, repro,
2007-03-18,0.91, -1.45, -17.07, 2.31, 1.56, 7.46, repro,
2007-03-19,0.48, -1.68, -14.56, 2.30, 1.54, 7.34, repro,
2007-03-20,2.02, -2.25, -8.67, 2.36, 1.60, 7.54, repro,
2007-03-21,0.70, -0.94, -6.25, 2.36, 1.60, 7.53, repro,
2007-03-22,0.49, -0.63, -7.36, 2.33, 1.61, 7.50, repro,
2007-03-23,-1.09, -0.87, -4.70, 2.29, 1.55, 7.37, repro,
2007-03-24,-0.88, -1.40, -7.58, 2.37, 1.61, 7.67, repro,
2007-03-25,-0.01, -0.64, -9.16, 2.33, 1.61, 7.61, repro,
2007-03-26,0.46, -0.60, -14.60, 2.29, 1.55, 7.37, repro,
2007-03-27,1.67, -1.03, -19.10, 2.32, 1.57, 7.62, repro,
2007-03-28,-0.20, -1.27, -24.20, 2.30, 1.57, 7.59, repro,
2007-03-29,0.78, -1.38, -22.18, 2.34, 1.64, 7.51, repro,
2007-03-30,-0.38, -1.36, -27.50, 2.28, 1.53, 7.28, repro,
2007-03-31,0.92, -1.42, -28.00, 2.31, 1.58, 7.62, repro,
2007-04-01,0.82, -1.43, -28.32, 2.33, 1.59, 7.52, repro,
2007-04-02,-0.24, -1.38, -31.22, 2.29, 1.55, 7.41, repro,
2007-04-03,-1.36, -1.59, -24.78, 2.33, 1.57, 7.47, repro,
2007-04-04,-1.57, -1.83, -25.99, 2.30, 1.55, 7.47, repro,
2007-04-05,-2.15, -0.30, -19.09, 2.34, 1.57, 7.55, repro,
2007-04-06,-2.92, -0.94, -16.73, 2.33, 1.58, 7.59, repro,
2007-04-07,-3.82, -1.15, -10.25, 2.34, 1.57, 7.47, repro,
2007-04-08,-4.58, -0.46, -14.22, 2.34, 1.57, 7.49, repro,
2007-04-09,-3.82, -1.52, -9.92, 2.33, 1.56, 7.40, repro,
2007-04-10,-2.53, -2.02, -13.47, 2.35, 1.56, 7.36, repro,
2007-04-11,-0.65, -0.99, -18.31, 2.30, 1.55, 7.35, repro,
2007-04-12,-0.63, -2.04, -16.88, 2.30, 1.56, 7.40, repro,
2007-04-13,-1.68, -1.86, -14.18, 2.30, 1.55, 7.35, repro,
2007-04-14,-1.40, -1.81, -13.72, 2.32, 1.56, 7.35, repro,
2007-04-15,-1.45, -1.67, -12.67, 2.27, 1.53, 7.22, repro,
2007-04-16,-0.86, -1.59, -13.27, 2.29, 1.54, 7.28, repro,
2007-04-17,-0.60, -1.59, -18.09, 2.35, 1.58, 7.44, repro,
2007-04-18,-0.83, -1.18, -19.15, 2.29, 1.56, 7.36, repro,
2007-04-19,-0.35, -1.94, -13.96, 2.29, 1.54, 7.29, repro,
2007-04-20,-1.36, -2.75, -12.47, 2.27, 1.53, 7.20, repro,
2007-04-21,-3.32, -2.28, -15.87, 2.29, 1.53, 7.27, repro,
2007-04-22,-2.47, -2.57, -19.16, 2.31, 1.56, 7.38, repro,
2007-04-23,-3.21, -1.62, -15.27, 2.34, 1.59, 7.47, repro,
2007-04-24,-3.18, -2.25, -10.17, 2.34, 1.58, 7.47, repro,
2007-04-25,-3.19, -3.16, -13.32, 2.34, 1.56, 7.36, repro,
2007-04-26,-3.22, -1.68, -13.11, 2.29, 1.53, 7.22, repro,
2007-04-27,-2.57, -1.31, -10.87, 2.31, 1.55, 7.34, repro,
2007-04-28,-0.12, -2.52, -15.24, 2.29, 1.56, 7.36, repro,
2007-04-29,-1.53, -1.92, -13.87, 2.29, 1.56, 7.37, repro,
2007-04-30,-0.75, -2.73, -15.51, 2.28, 1.56, 7.30, repro,
2007-05-01,-0.93, -2.53, -17.32, 2.29, 1.54, 7.23, repro,
2007-05-02,0.35, -2.15, -23.28, 2.35, 1.59, 7.43, repro,
2007-05-03,0.04, -2.01, -21.67, 2.35, 1.59, 7.43, repro,
2007-05-04,-0.83, -2.07, -20.79, 2.28, 1.56, 7.31, repro,
2007-05-05,-1.59, -1.94, -16.43, 2.34, 1.58, 7.59, repro,
2007-05-06,-1.06, -1.69, -15.89, 2.29, 1.54, 7.25, repro,
2007-05-07,-0.26, -2.37, -14.52, 2.32, 1.56, 7.38, repro,
2007-05-08,-0.08, -2.52, -16.96, 2.28, 1.55, 7.26, repro,
2007-05-09,-0.63, -2.20, -19.91, 2.28, 1.55, 7.27, repro,
2007-05-10,-1.40, -2.20, -22.85, 2.35, 1.63, 7.78, repro,
2007-05-11,-0.13, -2.72, -21.64, 2.36, 1.63, 7.75, repro,
2007-05-12,0.40, -2.25, -16.74, 2.30, 1.55, 7.27, repro,
2007-05-13,-0.79, -2.16, -15.44, 2.29, 1.54, 7.25, repro,
2007-05-14,-0.81, -3.14, -18.59, 2.34, 1.57, 7.37, repro,
2007-05-15,-2.35, -2.53, -19.57, 2.29, 1.55, 7.31, repro,
2007-05-16,-0.98, -2.43, -17.80, 2.28, 1.55, 7.28, repro,
2007-05-17,-0.76, -2.38, -18.94, 2.33, 1.57, 7.35, repro,
2007-05-18,0.15, -1.90, -22.18, 2.38, 1.58, 7.48, repro,
2007-05-19,0.25, -2.42, -16.02, 2.33, 1.60, 7.42, repro,
2007-05-20,0.03, -2.18, -16.30, 2.29, 1.55, 7.27, repro,
2007-05-21,1.05, -1.69, -23.03, 2.30, 1.56, 7.37, repro,
2007-05-22,0.58, -0.84, -16.49, 2.29, 1.55, 7.30, repro,
2007-05-23,-1.74, -2.04, -19.81, 2.32, 1.54, 7.35, repro,
2007-05-24,0.45, -2.92, -20.48, 2.35, 1.60, 7.49, repro,
2007-05-25,-1.40, -2.28, -16.71, 2.28, 1.54, 7.23, repro,
2007-05-26,-0.82, -2.68, -14.34, 2.28, 1.55, 7.27, repro,
2007-05-27,0.58, -2.36, -24.44, 2.28, 1.55, 7.23, repro,
2007-05-28,1.25, -2.04, -18.00, 2.29, 1.54, 7.28, repro,
2007-05-29,-1.13, -1.97, -17.78, 2.28, 1.54, 7.25, repro,
2007-05-30,-1.12, -2.15, -18.78, 2.30, 1.56, 7.38, repro,
2007-05-31,-1.21, -1.92, -16.12, 2.28, 1.54, 7.24, repro,
2007-06-01,-1.57, -1.27, -18.57, 2.27, 1.54, 7.21, repro,
2007-06-02,-0.53, -1.35, -18.48, 2.28, 1.53, 7.26, repro,
2007-06-03,0.71, -2.47, -26.93, 2.29, 1.55, 7.34, repro,
2007-06-04,-0.76, -1.69, -17.43, 2.29, 1.55, 7.31, repro,
2007-06-05,-1.36, -1.30, -18.49, 2.30, 1.57, 7.45, repro,
2007-06-06,1.13, -0.72, -15.50, 2.27, 1.54, 7.25, repro,
2007-06-07,-1.29, -0.81, -9.83, 2.29, 1.54, 7.32, repro,
2007-06-08,-1.10, -2.11, -12.26, 2.31, 1.55, 7.35, repro,
2007-06-09,2.10, -3.01, -19.23, 2.29, 1.54, 7.29, repro,
2007-06-10,1.32, -1.17, -15.25, 2.33, 1.57, 7.42, repro,
2007-06-11,0.72, -1.74, -14.26, 2.34, 1.58, 7.41, repro,
2007-06-12,0.62, -1.22, -16.59, 2.34, 1.57, 7.42, repro,
2007-06-13,-0.56, -1.50, -23.93, 2.29, 1.53, 7.23, repro,
2007-06-14,1.48, -1.75, -25.25, 2.32, 1.55, 7.35, repro,
2007-06-15,1.35, -2.26, -25.35, 2.36, 1.61, 7.41, repro,
2007-06-16,1.79, -0.90, -22.24, 2.29, 1.56, 7.28, repro,
2007-06-17,1.81, -1.55, -16.88, 2.30, 1.55, 7.28, repro,
2007-06-18,3.00, -1.72, -18.62, 2.32, 1.55, 7.34, repro,
2007-06-19,1.06, -0.70, -12.53, 2.30, 1.54, 7.28, repro,
2007-06-20,1.73, -1.61, -14.09, 2.31, 1.55, 7.33, repro,
2007-06-21,2.45, -1.74, -12.23, 2.30, 1.55, 7.28, repro,
2007-06-22,0.16, -1.56, -13.91, 2.36, 1.59, 7.42, repro,
2007-06-23,1.37, -0.89, -14.74, 2.30, 1.55, 7.30, repro,
2007-06-24,0.80, -0.85, -18.37, 2.35, 1.56, 7.32, repro,
2007-06-25,0.76, -0.69, -18.15, 2.30, 1.54, 7.30, repro,
2007-06-26,1.20, -1.74, -19.61, 2.30, 1.55, 7.31, repro,
2007-06-27,0.05, -1.70, -18.11, 2.30, 1.56, 7.30, repro,
2007-06-28,0.40, -1.09, -16.30, 2.30, 1.56, 7.33, repro,
2007-06-29,1.40, -1.35, -16.10, 2.28, 1.54, 7.24, repro,
2007-06-30,0.77, -0.91, -11.38, 2.31, 1.55, 7.32, repro,
2007-07-01,1.41, -1.41, -12.99, 2.30, 1.54, 7.31, repro,
2007-07-02,1.90, -1.46, -11.70, 2.29, 1.55, 7.28, repro,
2007-07-03,2.45, -2.00, -20.07, 2.31, 1.55, 7.32, repro,
2007-07-04,0.59, -1.07, -15.03, 2.30, 1.54, 7.28, repro,
2007-07-05,0.46, -1.08, -16.25, 2.29, 1.54, 7.27, repro,
2007-07-06,1.74, -1.02, -13.90, 2.31, 1.54, 7.33, repro,
2007-07-07,1.11, 0.06, -10.44, 2.30, 1.56, 7.36, repro,
2007-07-08,1.42, -0.23, -16.46, 2.31, 1.56, 7.38, repro,
2007-07-09,1.37, -1.06, -17.72, 2.30, 1.55, 7.28, repro,
2007-07-10,0.13, -1.06, -11.67, 2.28, 1.53, 7.24, repro,
2007-07-11,2.60, -0.92, -14.78, 2.31, 1.53, 7.28, repro,
2007-07-12,1.50, -0.63, -14.21, 2.30, 1.55, 7.33, repro,
2007-07-13,2.19, 0.12, -7.14, 2.38, 1.60, 7.54, repro,
2007-07-14,0.13, 0.30, -10.35, 2.35, 1.56, 7.40, repro,
2007-07-15,2.37, -0.08, -15.38, 2.32, 1.53, 7.27, repro,
2007-07-16,1.86, -1.07, -11.22, 2.29, 1.52, 7.22, repro,
2007-07-17,1.47, -0.87, -5.87, 2.29, 1.53, 7.25, repro,
2007-07-18,0.54, -1.41, -7.03, 2.30, 1.55, 7.38, repro,
2007-07-19,1.52, -0.25, -4.48, 2.29, 1.54, 7.28, repro,
2007-07-20,0.06, -0.37, -5.47, 2.32, 1.54, 7.34, repro,
2007-07-21,0.67, -0.98, -2.50, 2.29, 1.52, 7.25, repro,
2007-07-22,1.62, -1.19, -3.78, 2.28, 1.53, 7.24, repro,
2007-07-23,2.13, -0.73, 1.38, 2.30, 1.55, 7.38, repro,
2007-07-24,0.86, -0.44, -1.38, 2.29, 1.55, 7.31, repro,
2007-07-25,-1.07, -0.65, -3.19, 2.29, 1.53, 7.26, repro,
2007-07-26,0.45, -0.70, -7.09, 2.28, 1.51, 7.20, repro,
2007-07-27,1.06, -0.68, -8.84, 2.28, 1.52, 7.25, repro,
2007-07-28,-0.75, -1.22, -3.74, 2.29, 1.53, 7.27, repro,
2007-07-29,0.29, -0.14, -4.24, 2.30, 1.54, 7.27, repro,
2007-07-30,0.54, -0.15, -2.03, 2.30, 1.54, 7.28, repro,
2007-07-31,0.97, -0.40, -12.74, 2.30, 1.52, 7.24, repro,
2007-08-01,0.35, -0.09, -12.64, 2.28, 1.52, 7.19, repro,
2007-08-02,0.07, -0.07, -10.57, 2.29, 1.53, 7.27, repro,
2007-08-03,2.19, -0.91, -6.83, 2.28, 1.53, 7.24, repro,
2007-08-04,-0.49, -0.30, -3.27, 2.31, 1.54, 7.31, repro,
2007-08-05,2.15, 1.98, -5.56, 2.31, 1.55, 7.32, repro,
2007-08-06,-0.51, 1.01, -2.88, 2.34, 1.56, 7.34, repro,
2007-08-07,2.11, -0.91, -5.81, 2.34, 1.55, 7.33, repro,
2007-08-08,1.24, -1.09, -6.71, 2.29, 1.53, 7.27, repro,
2007-08-09,0.16, -0.17, -5.02, 2.28, 1.54, 7.22, repro,
2007-08-10,0.85, 0.26, -3.77, 2.31, 1.56, 7.34, repro,
2007-08-11,1.80, -0.85, -6.88, 2.30, 1.54, 7.26, repro,
2007-08-12,0.71, 1.23, -7.32, 2.29, 1.52, 7.23, repro,
2007-08-13,0.43, -1.37, -8.39, 2.28, 1.53, 7.25, repro,
2007-08-14,1.43, -0.75, 0.42, 2.48, 1.65, 7.83, repro,
2007-08-15,-0.79, -0.55, -1.26, 2.47, 1.64, 7.79, repro,
2007-08-16,0.75, 0.32, -0.76, 2.38, 1.59, 7.69, repro,
2007-08-17,-1.82, 0.37, 0.45, 2.36, 1.58, 7.58, repro,
2007-08-18,0.40, -0.23, 1.76, 2.41, 1.61, 7.61, repro,
2007-08-19,-1.58, -0.21, 6.84, 2.42, 1.62, 7.61, repro,
2007-08-20,-1.38, 0.72, 3.99, 2.36, 1.58, 7.51, repro,
2007-08-21,0.64, -0.33, 1.36, 2.37, 1.60, 7.58, repro,
2007-08-22,0.14, 0.35, -0.33, 2.38, 1.59, 7.51, repro,
2007-08-23,-0.68, 0.08, 0.98, 2.30, 1.55, 7.37, repro,
2007-08-24,-0.44, -1.22, 5.08, 2.40, 1.63, 7.94, repro,
2007-08-25,0.94, -0.25, 3.37, 2.40, 1.62, 7.65, repro,
2007-08-26,-0.15, -0.14, 5.14, 2.43, 1.64, 7.73, repro,
2007-08-27,0.12, 0.10, -3.38, 2.44, 1.64, 7.78, repro,
2007-08-28,0.52, 0.37, -2.57, 2.39, 1.61, 7.67, repro,
2007-08-29,1.27, -0.99, -0.06, 2.37, 1.61, 7.63, repro,
2007-08-30,0.14, 0.47, 0.83, 2.44, 1.67, 7.74, repro,
2007-08-31,-1.41, 0.67, -0.19, 2.39, 1.61, 7.64, repro,
2007-09-01,-0.51, 0.35, 0.26, 2.37, 1.60, 7.60, repro,
2007-09-02,0.79, 1.46, -2.65, 2.38, 1.62, 7.65, repro,
2007-09-03,0.54, 0.96, 0.12, 2.36, 1.59, 7.57, repro,
2007-09-04,-2.16, 0.47, 4.24, 2.38, 1.60, 7.62, repro,
2007-09-05,-1.13, 1.12, 4.03, 2.43, 1.62, 7.82, repro,
2007-09-06,-0.71, 0.90, -1.41, 2.36, 1.59, 7.57, repro,
2007-09-07,0.29, 0.65, -4.55, 2.36, 1.59, 7.57, repro,
2007-09-08,-1.06, 0.75, -4.02, 2.42, 1.64, 7.75, repro,
2007-09-09,-0.24, 1.19, -7.50, 2.43, 1.65, 7.77, repro,
2007-09-10,-0.95, 1.53, -8.08, 2.39, 1.60, 7.64, repro,
2007-09-11,1.43, 0.68, -9.45, 2.37, 1.59, 7.59, repro,
2007-09-12,-3.14, 2.38, -2.06, 2.37, 1.60, 7.62, repro,
2007-09-13,-0.35, 2.72, -0.27, 2.37, 1.60, 7.63, repro,
2007-09-14,-0.68, 1.79, -7.26, 2.38, 1.60, 7.64, repro,
2007-09-15,-0.67, 1.45, -1.76, 2.43, 1.67, 7.77, repro,
2007-09-16,-5.04, 4.35, 8.46, 2.38, 1.59, 7.56, repro,
2007-09-17,-0.39, 0.60, 2.93, 2.37, 1.59, 7.62, repro,
2007-09-18,0.04, 1.62, -6.84, 2.34, 1.57, 7.43, repro,
2007-09-19,-0.19, 0.92, -0.16, 2.27, 1.52, 7.22, repro,
2007-09-20,-0.09, 1.88, 5.38, 2.30, 1.54, 7.31, repro,
2007-09-21,-0.47, 0.80, -3.04, 2.38, 1.57, 7.46, repro,
2007-09-22,0.59, 1.14, -0.88, 2.30, 1.53, 7.28, repro,
2007-09-23,-0.92, 1.14, -0.65, 2.30, 1.53, 7.29, repro,
2007-09-24,0.95, 0.60, 3.06, 2.32, 1.54, 7.40, repro,
2007-09-25,0.07, 0.88, -2.75, 2.35, 1.58, 7.55, repro,
2007-09-26,-0.61, 1.01, -1.35, 2.32, 1.55, 7.34, repro,
2007-09-27,0.01, 1.09, -1.75, 2.37, 1.57, 7.44, repro,
2007-09-28,0.71, -0.40, 6.88, 2.32, 1.53, 7.32, repro,
2007-09-29,-1.05, 1.18, 4.05, 2.32, 1.54, 7.33, repro,
2007-09-30,-1.74, 1.99, 4.93, 2.29, 1.53, 7.27, repro,
2007-10-01,-1.64, 0.12, 3.63, 2.36, 1.56, 7.42, repro,
2007-10-02,-0.62, 1.39, -1.78, 2.43, 1.60, 7.59, repro,
2007-10-03,0.79, 0.48, 3.61, 2.38, 1.57, 7.48, repro,
2007-10-04,0.97, 1.03, 0.69, 2.41, 1.62, 7.53, repro,
2007-10-05,-0.86, 1.00, 8.78, 2.28, 1.52, 7.24, repro,
2007-10-06,-0.77, 0.53, 5.88, 2.27, 1.52, 7.22, repro,
2007-10-07,0.61, 0.15, 4.75, 2.31, 1.52, 7.29, repro,
2007-10-08,-0.04, 0.75, -3.27, 2.46, 1.65, 7.79, repro,
2007-10-09,1.06, 0.00, -2.42, 2.53, 1.74, 7.95, repro,
2007-10-10,0.15, 0.44, 2.68, 2.38, 1.62, 7.67, repro,
2007-10-11,-0.93, 1.08, 5.35, 2.27, 1.53, 7.23, repro,
2007-10-12,-0.34, 0.68, 2.21, 2.28, 1.53, 7.28, repro,
2007-10-13,-0.91, 1.22, 5.56, 2.37, 1.56, 7.46, repro,
2007-10-14,-2.01, 2.37, 5.45, 2.39, 1.57, 7.50, repro,
2007-10-15,-1.17, 1.46, 2.48, 2.31, 1.53, 7.35, repro,
2007-10-16,-0.55, 1.09, 3.21, 2.30, 1.53, 7.29, repro,
2007-10-17,0.01, 1.28, 3.69, 2.40, 1.61, 7.59, repro,
2007-10-18,-0.74, 0.95, 5.75, 2.36, 1.56, 7.46, repro,
2007-10-19,0.40, 1.07, 10.22, 2.37, 1.57, 7.46, repro,
2007-10-20,0.92, 0.85, 8.52, 2.36, 1.57, 7.45, repro,
2007-10-21,0.60, 1.22, 5.35, 2.29, 1.53, 7.28, repro,
2007-10-22,-0.18, 0.88, 5.40, 2.34, 1.56, 7.39, repro,
2007-10-23,0.71, -0.32, -1.54, 2.40, 1.60, 7.55, repro,